This is the latest recevied weather packets stored in our database for station/object KG5WBN. If no packets are shown the sender has not sent any weather packets the latest 10 day(s).
| Time | Temp. | Humidity | Pressure | Rain* | Wind** | Luminosity | Snow |
|---|---|---|---|---|---|---|---|
| 1777639925 | 21.11° C | 99% | 1010.8 hPa | 0 mm | - | 40 W/m² | - |
| 1777639623 | 21.11° C | 99% | 1010.8 hPa | 0 mm | - | 39 W/m² | - |
| 1777639320 | 21.11° C | 99% | 1010.5 hPa | 0 mm | - | 36 W/m² | - |
| 1777639015 | 21.11° C | 99% | 1010.2 hPa | 0 mm | - | 33 W/m² | - |
| 1777638712 | 21.67° C | 99% | 1010.8 hPa | 0 mm | - | 27 W/m² | - |
| 1777638408 | 21.67° C | 99% | 1010.8 hPa | 0 mm | - | 25 W/m² | - |
| 1777638105 | 21.67° C | 99% | 1010.8 hPa | 0 mm | - | 14 W/m² | - |
| 1777637801 | 21.67° C | 99% | 1010.5 hPa | 0 mm | - | 14 W/m² | - |
| 1777637497 | 21.67° C | 99% | 1010.8 hPa | 0 mm | - | 11 W/m² | - |
| 1777637195 | 21.67° C | 99% | 1010.8 hPa | 0 mm | - | 9 W/m² | - |
| 1777636892 | 21.67° C | 99% | 1011.2 hPa | 0 mm | - | 7 W/m² | - |
| 1777636587 | 21.67° C | 99% | 1011.2 hPa | 0 mm | - | 6 W/m² | - |
| 1777636284 | 21.67° C | 99% | 1011.5 hPa | 0 mm | - | 5 W/m² | - |
| 1777635984 | 21.67° C | 99% | 1010.8 hPa | 0 mm | - | 2 W/m² | - |
| 1777635680 | 21.67° C | 99% | 1011.2 hPa | 0 mm | - | 2 W/m² | - |
| 1777635377 | 22.22° C | 99% | 1011.2 hPa | 0 mm | - | 0 W/m² | - |
| 1777635074 | 22.22° C | 99% | 1010.8 hPa | 0 mm | - | 0 W/m² | - |
| 1777634769 | 22.78° C | 99% | 1011.5 hPa | 0 mm | - | 0 W/m² | - |
| 1777634467 | 22.22° C | 99% | 1011.2 hPa | 0 mm | - | 0 W/m² | - |
| 1777634163 | 22.78° C | 99% | 1010.8 hPa | 0 mm | - | 0 W/m² | - |
| 1777633860 | 22.78° C | 99% | 1010.8 hPa | 0 mm | - | 0 W/m² | - |
| 1777633558 | 22.78° C | 99% | 1010.8 hPa | 0 mm | - | 0 W/m² | - |
| 1777633255 | 22.78° C | 99% | 1010.8 hPa | 0 mm | - | 0 W/m² | - |
| 1777632953 | 22.78° C | 99% | 1010.5 hPa | 0 mm | - | 0 W/m² | - |
| 1777632649 | 22.78° C | 99% | 1010.8 hPa | 0 mm | - | 0 W/m² | - |
* Rain latest hour (hover to see other rain measurements)
** Current wind speed in m/s (hover to see current wind gust speed)